Simultaneous Nadir Overpasses (SNOs) Predictions

Prediction of SNOs between GOES-16 and AQUA Satellite Orbit:

Table of predicted SNOs for the next 14.0 days since TLE Epoch: 11/18/2023
Index Date Time (GOES-16) GOES-16 Lat,Lon AQUA Lat,Lon Distance(km) Time Diff (sec)
1 11/18/2023 18:49:52 -0.01, -75.21 0.49, -72.94 258.87 80
2 11/19/2023 07:10:22 0.01, -75.21 0.60, -77.91 306.58 80
3 11/21/2023 06:52:41 0.01, -75.23 -0.18, -74.24 111.86 80
4 11/21/2023 19:13:22 -0.00, -75.23 -0.85, -79.25 456.70 80
5 11/23/2023 18:58:20 -0.00, -75.26 -0.10, -75.58 36.97 80
6 11/25/2023 18:45:58 -0.01, -75.28 0.69, -71.90 383.68 80
7 11/26/2023 07:06:30 0.00, -75.29 0.32, -76.88 180.82 80
8 11/28/2023 06:48:47 0.01, -75.32 -0.44, -73.20 240.31 80
9 11/28/2023 19:09:27 -0.01, -75.33 -0.62, -78.21 327.72 80
10 11/30/2023 18:57:04 -0.01, -75.36 0.18, -74.54 94.34 80
11 12/01/2023 07:17:35 0.01, -75.37 0.88, -79.50 469.42 80
